Hallock, MN

12:42 PM CST on December 10, 2016 (GMT -0600)
Hallock Municipal

Weather History for KHCO - August, 2013

Change the Weather History Date:

Thursday, August 29, 2013

  Actual Average Record
Temperature  
Mean Temperature 74 °F -  
Max Temperature 82 °F 79 °F 100 °F (1984)
Min Temperature 66 °F 52 °F 39 °F (1946)
Cooling Degree Days 9    
Growing Degree Days 24 (Base 50)    
Moisture  
Dew Point 70 °F    
Average Humidity 88    
Maximum Humidity 100    
Minimum Humidity 66    
Precipitation  
Precipitation 0.73 in - - ()
Sea Level Pressure  
Sea Level Pressure 29.87 in    
Wind  
Wind Speed 8 mph (ENE)    
Max Wind Speed 17 mph    
Max Gust Speed 21 mph    
Visibility 9 miles    
Events Rain , Thunderstorm    
Averages and records for this station are not official NWS values.
T = Trace of Precipitation, MM = Missing Value Source: NWS Daily Summary

Daily Weather History Graph

Daily Weather History Graph

Search for Another Location

Airport or City:

Trip Planner

Search our weather history database for the weather conditions in past years. The results will help you decide how hot, cold, wet, or windy it might be!

Date:

Astronomy

Aug. 29, 2013 Rise Set
Actual Time 6:40 AM CDT 8:15 PM CDT
Civil Twilight 6:07 AM CDT 8:48 PM CDT
Nautical Twilight 5:27 AM CDT 9:28 PM CDT
Astronomical Twilight 4:43 AM CDT 10:11 PM CDT
Moon 12:18 AM CDT (8/29) 4:00 PM CDT (8/29)
Length of Visible Light 14h 40m
Length of Day
13h 34m
Last Quarter, 38% of the Moon is Illuminated
Aug 29
Last Quarter
Sep 5
New
Sep 12
First Quarter
Sep 19
Full
Sep 26
Last Quarter

Hourly Weather History & Observations

Time (CDT) Temp. Heat Index Dew Point Humidity Pressure Visibility Wind Dir Wind Speed Gust Speed Precip Events Conditions
12:13 AM 75.2 °F - 68.0 °F 78% 29.94 in 10.0 mi SE 6.9 mph - N/A   Clear
12:33 AM 73.4 °F - 69.8 °F 88% 29.94 in 10.0 mi SE 6.9 mph - N/A   Clear
12:53 AM 73.4 °F - 69.8 °F 88% 29.94 in 4.0 mi SE 8.1 mph - N/A   Clear
1:13 AM 73.4 °F - 69.8 °F 88% 29.93 in 5.0 mi SE 6.9 mph - N/A   Clear
1:33 AM 71.6 °F - 69.8 °F 94% 29.93 in 7.0 mi SE 6.9 mph - N/A   Clear
1:53 AM 71.6 °F - 69.8 °F 94% 29.93 in 10.0 mi SSE 5.8 mph - N/A   Clear
2:13 AM 71.6 °F - 69.8 °F 94% 29.93 in 10.0 mi SSE 5.8 mph - N/A   Clear
2:33 AM 71.6 °F - 69.8 °F 94% 29.92 in 10.0 mi SE 4.6 mph - N/A   Clear
2:53 AM 71.6 °F - 69.8 °F 94% 29.92 in 10.0 mi SE 5.8 mph - N/A   Clear
3:13 AM 71.6 °F - 69.8 °F 94% 29.91 in 10.0 mi SE 5.8 mph - N/A   Clear
3:33 AM 71.6 °F - 69.8 °F 94% 29.89 in 10.0 mi SE 6.9 mph - N/A   Clear
3:53 AM 69.8 °F - 68.0 °F 94% 29.89 in 10.0 mi SSE 6.9 mph - N/A   Clear
4:13 AM 69.8 °F - 68.0 °F 94% 29.89 in 10.0 mi SSE 4.6 mph - N/A   Clear
4:33 AM 69.8 °F - 68.0 °F 94% 29.89 in 10.0 mi SSE 6.9 mph - N/A   Clear
4:53 AM 69.8 °F - 68.0 °F 94% 29.88 in 10.0 mi SE 5.8 mph - N/A   Clear
5:13 AM 71.6 °F - 69.8 °F 94% 29.88 in 10.0 mi SE 6.9 mph - N/A   Clear
5:33 AM 71.6 °F - 69.8 °F 94% 29.88 in 10.0 mi SE 8.1 mph - N/A   Clear
5:53 AM 71.6 °F - 69.8 °F 94% 29.86 in 10.0 mi ESE 9.2 mph - N/A   Clear
6:13 AM 71.6 °F - 69.8 °F 94% 29.86 in 10.0 mi SE 9.2 mph - N/A   Clear
6:33 AM 71.6 °F - 69.8 °F 94% 29.85 in 10.0 mi SE 6.9 mph - N/A   Clear
6:53 AM 71.6 °F - 69.8 °F 94% 29.84 in 7.0 mi ESE 6.9 mph - N/A   Clear
7:13 AM 73.4 °F - 69.8 °F 88% 29.82 in 10.0 mi ESE 6.9 mph - N/A   Clear
7:33 AM 73.4 °F - 69.8 °F 88% 29.83 in 10.0 mi ESE 5.8 mph - N/A Thunderstorm Mostly Cloudy
7:53 AM 73.4 °F - 69.8 °F 88% 29.83 in 5.0 mi SSE 5.8 mph - 0.05 in Rain , Thunderstorm Heavy Thunderstorms and Rain
8:13 AM 69.8 °F - 69.8 °F 100% 29.79 in 1.8 mi SSW 6.9 mph - 0.61 in Rain , Thunderstorm Heavy Thunderstorms and Rain
8:33 AM 69.8 °F - 69.8 °F 100% 29.80 in 10.0 mi SSW 9.2 mph - 0.64 in Rain , Thunderstorm Light Thunderstorms and Rain
8:53 AM 69.8 °F - 69.8 °F 100% 29.71 in 7.0 mi East 17.3 mph - 0.67 in Rain Light Rain
9:13 AM 68.0 °F - 68.0 °F 100% 29.76 in 10.0 mi SSE 16.1 mph 20.7 mph 0.01 in Rain Light Rain
9:33 AM 68.0 °F - 68.0 °F 100% 29.78 in 10.0 mi SSE 10.4 mph - 0.01 in   Scattered Clouds
9:53 AM 69.8 °F - 68.0 °F 94% 29.82 in 10.0 mi SW 5.8 mph - 0.01 in   Scattered Clouds
10:13 AM 69.8 °F - 69.8 °F 100% 29.82 in 10.0 mi West 9.2 mph - N/A   Mostly Cloudy
10:33 AM 69.8 °F - 69.8 °F 100% 29.83 in 10.0 mi Calm Calm - N/A   Mostly Cloudy
10:53 AM 71.6 °F - 71.6 °F 100% 29.82 in 10.0 mi WSW 6.9 mph - N/A   Mostly Cloudy
11:13 AM 73.4 °F - 71.6 °F 94% 29.83 in 10.0 mi West 10.4 mph - N/A   Mostly Cloudy
11:33 AM 73.4 °F - 71.6 °F 94% 29.83 in 10.0 mi West 11.5 mph 16.1 mph N/A   Overcast
11:53 AM 75.2 °F - 73.4 °F 94% 29.83 in 7.0 mi West 11.5 mph - N/A   Mostly Cloudy
12:13 PM 78.8 °F - 73.4 °F 83% 29.83 in 10.0 mi West 10.4 mph - N/A   Clear
12:33 PM 77.0 °F - 73.4 °F 89% 29.83 in 10.0 mi WNW 10.4 mph - N/A   Mostly Cloudy
12:53 PM 75.2 °F - 73.4 °F 94% 29.83 in 10.0 mi NW 12.7 mph - N/A   Overcast
1:13 PM 75.2 °F - 73.4 °F 94% 29.84 in 10.0 mi NNW 11.5 mph 17.3 mph N/A   Overcast
1:33 PM 75.2 °F - 71.6 °F 89% 29.84 in 10.0 mi North 12.7 mph 20.7 mph N/A   Overcast
1:53 PM 75.2 °F - 73.4 °F 94% 29.83 in 10.0 mi North 10.4 mph - N/A   Mostly Cloudy
2:13 PM 78.8 °F - 71.6 °F 78% 29.83 in 10.0 mi NNE 10.4 mph - N/A   Scattered Clouds
2:33 PM 78.8 °F - 71.6 °F 78% 29.84 in 10.0 mi North 11.5 mph - N/A   Scattered Clouds
2:53 PM 80.6 °F 84.6 °F 71.6 °F 74% 29.85 in 10.0 mi NNW 12.7 mph - N/A   Scattered Clouds
3:13 PM 80.6 °F 84.6 °F 71.6 °F 74% 29.85 in 10.0 mi North 11.5 mph - N/A   Scattered Clouds
3:33 PM 82.4 °F 87.2 °F 71.6 °F 70% 29.85 in 10.0 mi North 10.4 mph - N/A   Scattered Clouds
3:53 PM 82.4 °F 87.2 °F 71.6 °F 70% 29.85 in 10.0 mi North 15.0 mph 19.6 mph N/A   Clear
4:12 PM 82.4 °F 86.3 °F 69.8 °F 66% 29.85 in 10.0 mi North 12.7 mph 17.3 mph N/A   Clear
4:33 PM 82.4 °F 86.3 °F 69.8 °F 66% 29.85 in 10.0 mi North 10.4 mph - N/A   Clear
4:53 PM 82.4 °F 86.3 °F 69.8 °F 66% 29.86 in 10.0 mi North 8.1 mph - N/A   Clear
5:12 PM 80.6 °F 83.9 °F 69.8 °F 70% 29.86 in 10.0 mi North 10.4 mph - N/A   Scattered Clouds
5:33 PM 82.4 °F 86.3 °F 69.8 °F 66% 29.86 in 10.0 mi North 11.5 mph 17.3 mph N/A   Scattered Clouds
5:53 PM 82.4 °F 87.2 °F 71.6 °F 70% 29.87 in 10.0 mi NNE 11.5 mph - N/A   Scattered Clouds
6:13 PM 80.6 °F 83.9 °F 69.8 °F 70% 29.87 in 10.0 mi North 8.1 mph - N/A   Clear
6:33 PM 80.6 °F 83.9 °F 69.8 °F 70% 29.87 in 10.0 mi NNE 10.4 mph - N/A   Clear
6:53 PM 80.6 °F 83.9 °F 69.8 °F 70% 29.87 in 10.0 mi NNE 6.9 mph - N/A   Clear
7:12 PM 78.8 °F - 69.8 °F 74% 29.88 in 10.0 mi North 5.8 mph - N/A   Clear
7:33 PM 78.8 °F - 69.8 °F 74% 29.89 in 10.0 mi North 4.6 mph - N/A   Clear
7:53 PM 75.2 °F - 69.8 °F 83% 29.89 in 10.0 mi North 5.8 mph - N/A   Clear
8:13 PM 73.4 °F - 69.8 °F 88% 29.89 in 10.0 mi North 3.5 mph - N/A   Clear
8:33 PM 71.6 °F - 69.8 °F 94% 29.90 in 10.0 mi NNE 5.8 mph - N/A   Clear
8:53 PM 71.6 °F - 69.8 °F 94% 29.91 in 10.0 mi NNE 4.6 mph - N/A   Clear
9:13 PM 71.6 °F - 69.8 °F 94% 29.92 in 10.0 mi NNE 5.8 mph - N/A   Clear
9:33 PM 71.6 °F - 68.0 °F 88% 29.93 in 10.0 mi NNE 4.6 mph - N/A   Clear
9:53 PM 69.8 °F - 68.0 °F 94% 29.93 in 10.0 mi NNE 5.8 mph - N/A   Clear
10:13 PM 69.8 °F - 68.0 °F 94% 29.93 in 10.0 mi NNE 5.8 mph - N/A   Clear
10:33 PM 69.8 °F - 69.8 °F 100% 29.94 in 10.0 mi NNE 5.8 mph - N/A   Clear
10:53 PM 69.8 °F - 68.0 °F 94% 29.94 in 10.0 mi NE 4.6 mph - N/A   Clear
11:13 PM 68.0 °F - 66.2 °F 94% 29.94 in 10.0 mi Calm Calm - N/A   Clear
11:33 PM 66.2 °F - 66.2 °F 100% 29.94 in 5.0 mi Calm Calm - N/A   Clear
11:53 PM 66.2 °F - 66.2 °F 100% 29.93 in 7.0 mi NE 3.5 mph - N/A   Clear